Time,TemperatureF,DewpointF,PressureIn,WindDirection,WindDirectionDegrees,WindSpeedMPH,WindSpeedGustMPH,Humidity,HourlyPrecipIn,Conditions,Clouds,dailyrainin,SoftwareType,DateUTC
2013-02-05 00:01:00,35.0,26.0,-100.00,SSW,209,1.0,2.0,71,0.00,,,-99.99,,2013-02-05 07:01:00,
2013-02-05 00:11:00,35.0,26.0,-100.00,SSW,205,1.0,4.0,71,0.00,,,-99.99,,2013-02-05 07:11:00,
2013-02-05 00:22:00,35.0,26.0,-100.00,SSW,205,1.0,4.0,71,0.00,,,-99.99,,2013-02-05 07:22:00,
2013-02-05 00:31:00,35.0,26.0,-100.00,SSW,205,1.0,4.0,71,0.00,,,-99.99,,2013-02-05 07:31:00,
2013-02-05 00:41:00,34.0,27.0,-100.00,SSE,151,0.0,1.0,74,0.00,,,-99.99,,2013-02-05 07:41:00,
2013-02-05 00:52:00,34.0,27.0,-100.00,ESE,123,0.0,1.0,75,0.00,,,-99.99,,2013-02-05 07:52:00,
2013-02-05 01:01:00,34.0,27.0,-100.00,ESE,123,0.0,1.0,75,0.00,,,-99.99,,2013-02-05 08:01:00,
2013-02-05 01:11:00,33.0,27.0,-100.00,ESE,123,2.0,3.0,76,0.00,,,-99.99,,2013-02-05 08:11:00,
2013-02-05 01:21:00,34.0,27.0,-100.00,SSE,157,0.0,1.0,74,0.00,,,-99.99,,2013-02-05 08:21:00,
2013-02-05 01:31:00,34.0,27.0,-100.00,SSE,157,0.0,1.0,74,0.00,,,-99.99,,2013-02-05 08:31:00,
2013-02-05 01:41:00,34.0,27.0,-100.00,SSE,157,0.0,1.0,74,0.00,,,-99.99,,2013-02-05 08:41:00,
2013-02-05 01:52:00,34.0,27.0,-100.00,ESE,110,1.0,2.0,76,0.00,,,-99.99,,2013-02-05 08:52:00,
2013-02-05 02:02:00,34.0,27.0,-100.00,ESE,110,1.0,2.0,76,0.00,,,-99.99,,2013-02-05 09:02:00,
2013-02-05 02:11:00,34.0,27.0,-100.00,WNW,299,1.0,2.0,75,0.00,,,-99.99,,2013-02-05 09:11:00,
2013-02-05 02:21:00,33.0,27.0,-100.00,WNW,291,0.0,0.0,78,0.00,,,-99.99,,2013-02-05 09:21:00,
2013-02-05 02:31:00,33.0,27.0,-100.00,WNW,291,0.0,0.0,78,0.00,,,-99.99,,2013-02-05 09:31:00,
2013-02-05 02:42:00,32.0,26.0,-100.00,ENE,71,1.0,1.0,80,0.00,,,-99.99,,2013-02-05 09:42:00,
2013-02-05 02:52:00,32.0,26.0,-100.00,ESE,107,2.0,3.0,80,0.00,,,-99.99,,2013-02-05 09:52:00,
2013-02-05 03:01:00,32.0,26.0,-100.00,ESE,107,2.0,3.0,80,0.00,,,-99.99,,2013-02-05 10:01:00,
2013-02-05 03:11:00,32.0,26.0,-100.00,ESE,116,2.0,4.0,80,0.00,,,-99.99,,2013-02-05 10:11:00,
2013-02-05 03:21:00,32.0,26.0,-100.00,ESE,110,2.0,3.0,78,0.00,,,-99.99,,2013-02-05 10:21:00,
2013-02-05 03:31:00,32.0,26.0,-100.00,ESE,110,2.0,3.0,78,0.00,,,-99.99,,2013-02-05 10:31:00,
2013-02-05 03:42:00,33.0,26.0,-100.00,East,92,0.0,1.0,76,0.00,,,-99.99,,2013-02-05 10:42:00,
2013-02-05 03:52:00,32.0,26.0,-100.00,SE,130,2.0,2.0,78,0.00,,,-99.99,,2013-02-05 10:52:00,
2013-02-05 04:01:00,32.0,26.0,-100.00,SE,130,2.0,2.0,78,0.00,,,-99.99,,2013-02-05 11:01:00,
2013-02-05 04:11:00,32.0,26.0,-100.00,SE,134,2.0,3.0,77,0.00,,,-99.99,,2013-02-05 11:11:00,
2013-02-05 04:22:00,33.0,26.0,-100.00,SE,143,2.0,4.0,74,0.00,,,-99.99,,2013-02-05 11:22:00,
2013-02-05 04:32:00,33.0,26.0,-100.00,SE,143,2.0,4.0,74,0.00,,,-99.99,,2013-02-05 11:32:00,
2013-02-05 04:41:00,33.0,26.0,-100.00,SE,143,2.0,4.0,74,0.00,,,-99.99,,2013-02-05 11:41:00,
2013-02-05 04:52:00,34.0,25.0,-100.00,ESE,103,3.0,5.0,70,0.00,,,-99.99,,2013-02-05 11:52:00,
2013-02-05 05:01:00,34.0,25.0,-100.00,ESE,103,3.0,5.0,70,0.00,,,-99.99,,2013-02-05 12:01:00,
2013-02-05 05:12:00,33.0,25.0,-100.00,ESE,113,0.0,2.0,72,0.00,,,-99.99,,2013-02-05 12:12:00,
2013-02-05 05:21:00,31.0,25.0,-100.00,ESE,113,1.0,3.0,76,0.00,,,-99.99,,2013-02-05 12:21:00,
2013-02-05 05:32:00,31.0,25.0,-100.00,ESE,113,1.0,3.0,76,0.00,,,-99.99,,2013-02-05 12:32:00,
2013-02-05 05:41:00,33.0,25.0,-100.00,SE,124,2.0,4.0,71,0.00,,,-99.99,,2013-02-05 12:41:00,
2013-02-05 05:52:00,33.0,25.0,-100.00,SE,124,2.0,4.0,71,0.00,,,-99.99,,2013-02-05 12:52:00,
2013-02-05 06:01:00,33.0,25.0,-100.00,SE,124,2.0,4.0,71,0.00,,,-99.99,,2013-02-05 13:01:00,
2013-02-05 06:11:00,33.0,24.0,-100.00,SSE,151,1.0,2.0,70,0.00,,,-99.99,,2013-02-05 13:11:00,
2013-02-05 06:21:00,31.0,24.0,-100.00,ESE,110,2.0,4.0,76,0.00,,,-99.99,,2013-02-05 13:21:00,
2013-02-05 06:31:00,31.0,24.0,-100.00,ESE,110,2.0,4.0,76,0.00,,,-99.99,,2013-02-05 13:31:00,
2013-02-05 06:42:00,32.0,24.0,-100.00,ESE,112,4.0,9.0,72,0.00,,,-99.99,,2013-02-05 13:42:00,
2013-02-05 06:52:00,33.0,24.0,-100.00,ESE,110,3.0,6.0,68,0.00,,,-99.99,,2013-02-05 13:52:00,
2013-02-05 07:01:00,33.0,24.0,-100.00,ESE,110,3.0,6.0,68,0.00,,,-99.99,,2013-02-05 14:01:00,
2013-02-05 07:12:00,33.0,24.0,-100.00,ESE,110,3.0,6.0,68,0.00,,,-99.99,,2013-02-05 14:12:00,
2013-02-05 07:21:00,32.0,23.0,-100.00,ESE,117,5.0,6.0,71,0.00,,,-99.99,,2013-02-05 14:21:00,
2013-02-05 07:31:00,32.0,23.0,-100.00,ESE,117,5.0,6.0,71,0.00,,,-99.99,,2013-02-05 14:31:00,
2013-02-05 07:42:00,32.0,23.0,-100.00,ESE,120,3.0,5.0,70,0.00,,,-99.99,,2013-02-05 14:42:00,
2013-02-05 07:52:00,31.0,23.0,-100.00,ESE,117,2.0,4.0,74,0.00,,,-99.99,,2013-02-05 14:52:00,
2013-02-05 08:01:00,31.0,23.0,-100.00,ESE,117,2.0,4.0,74,0.00,,,-99.99,,2013-02-05 15:01:00,
2013-02-05 08:11:00,31.0,23.0,-100.00,ESE,117,2.0,4.0,74,0.00,,,-99.99,,2013-02-05 15:11:00,
2013-02-05 08:21:00,33.0,23.0,-100.00,ESE,110,2.0,4.0,68,0.00,,,-99.99,,2013-02-05 15:21:00,
2013-02-05 08:32:00,33.0,23.0,-100.00,ESE,110,2.0,4.0,68,0.00,,,-99.99,,2013-02-05 15:32:00,
2013-02-05 08:41:00,33.0,23.0,-100.00,ESE,117,2.0,4.0,68,0.00,,,-99.99,,2013-02-05 15:41:00,
2013-02-05 08:52:00,33.0,24.0,-100.00,SE,131,2.0,3.0,67,0.00,,,-99.99,,2013-02-05 15:52:00,
2013-02-05 09:01:00,33.0,24.0,-100.00,SE,131,2.0,3.0,67,0.00,,,-99.99,,2013-02-05 16:01:00,
2013-02-05 09:11:00,34.0,24.0,-100.00,East,95,3.0,5.0,65,0.00,,,-99.99,,2013-02-05 16:11:00,
2013-02-05 09:22:00,34.0,24.0,-100.00,East,95,3.0,5.0,65,0.00,,,-99.99,,2013-02-05 16:22:00,
2013-02-05 09:41:00,35.0,24.0,-100.00,SE,130,3.0,4.0,64,0.00,,,-99.99,,2013-02-05 16:41:00,
2013-02-05 09:52:00,35.0,24.0,-100.00,ESE,112,4.0,6.0,64,0.00,,,-99.99,,2013-02-05 16:52:00,
2013-02-05 10:01:00,35.0,24.0,-100.00,ESE,112,4.0,6.0,64,0.00,,,-99.99,,2013-02-05 17:01:00,
2013-02-05 10:11:00,35.0,24.0,-100.00,ESE,112,4.0,6.0,64,0.00,,,-99.99,,2013-02-05 17:11:00,
2013-02-05 10:21:00,35.0,24.0,-100.00,ESE,110,5.0,7.0,64,0.00,,,-99.99,,2013-02-05 17:21:00,
2013-02-05 10:32:00,35.0,24.0,-100.00,ESE,110,5.0,7.0,64,0.00,,,-99.99,,2013-02-05 17:32:00,
2013-02-05 10:42:00,35.0,25.0,-100.00,ESE,114,3.0,4.0,64,0.00,,,-99.99,,2013-02-05 17:42:00,
2013-02-05 10:52:00,36.0,25.0,-100.00,ESE,109,6.0,10.0,64,0.00,,,-99.99,,2013-02-05 17:52:00,
2013-02-05 11:01:00,36.0,25.0,-100.00,ESE,109,6.0,10.0,64,0.00,,,-99.99,,2013-02-05 18:01:00,
2013-02-05 11:11:00,36.0,26.0,-100.00,SSE,154,4.0,6.0,65,0.00,,,-99.99,,2013-02-05 18:11:00,
2013-02-05 11:21:00,36.0,26.0,-100.00,North,3,3.0,4.0,67,0.00,,,-99.99,,2013-02-05 18:21:00,
2013-02-05 11:32:00,36.0,26.0,-100.00,North,3,3.0,4.0,67,0.00,,,-99.99,,2013-02-05 18:32:00,
2013-02-05 11:42:00,36.0,25.0,-100.00,ESE,116,5.0,8.0,64,0.00,,,-99.99,,2013-02-05 18:42:00,
2013-02-05 11:52:00,39.0,25.0,-100.00,ESE,123,7.0,9.0,58,0.00,,,-99.99,,2013-02-05 18:52:00,
2013-02-05 12:01:00,39.0,25.0,-100.00,ESE,123,7.0,9.0,58,0.00,,,-99.99,,2013-02-05 19:01:00,
2013-02-05 12:11:00,39.0,25.0,-100.00,ESE,117,6.0,10.0,58,0.00,,,-99.99,,2013-02-05 19:11:00,
2013-02-05 12:21:00,39.0,25.0,-100.00,ESE,119,5.0,7.0,58,0.00,,,-99.99,,2013-02-05 19:21:00,
2013-02-05 12:31:00,39.0,25.0,-100.00,ESE,119,5.0,7.0,58,0.00,,,-99.99,,2013-02-05 19:31:00,
2013-02-05 12:42:00,41.0,26.0,-100.00,SSE,160,6.0,11.0,54,0.00,,,-99.99,,2013-02-05 19:42:00,
2013-02-05 12:52:00,41.0,26.0,-100.00,SSE,160,6.0,11.0,54,0.00,,,-99.99,,2013-02-05 19:52:00,
2013-02-05 13:01:00,41.0,26.0,-100.00,SSE,160,6.0,11.0,54,0.00,,,-99.99,,2013-02-05 20:01:00,
2013-02-05 13:11:00,42.0,26.0,-100.00,ESE,119,4.0,7.0,52,0.00,,,-99.99,,2013-02-05 20:11:00,
2013-02-05 13:21:00,43.0,26.0,-100.00,SE,143,3.0,5.0,50,0.00,,,-99.99,,2013-02-05 20:21:00,
2013-02-05 13:32:00,43.0,26.0,-100.00,SE,143,3.0,5.0,50,0.00,,,-99.99,,2013-02-05 20:32:00,
2013-02-05 13:41:00,42.0,25.0,-100.00,SE,131,4.0,6.0,51,0.00,,,-99.99,,2013-02-05 20:41:00,
2013-02-05 13:52:00,42.0,25.0,-100.00,SE,131,4.0,6.0,51,0.00,,,-99.99,,2013-02-05 20:52:00,
2013-02-05 14:01:00,42.0,25.0,-100.00,SE,131,4.0,6.0,51,0.00,,,-99.99,,2013-02-05 21:01:00,
2013-02-05 14:11:00,43.0,25.0,-100.00,SE,134,5.0,8.0,48,0.00,,,-99.99,,2013-02-05 21:11:00,
2013-02-05 14:21:00,44.0,25.0,-100.00,SSE,158,4.0,7.0,47,0.00,,,-99.99,,2013-02-05 21:21:00,
2013-02-05 14:31:00,44.0,25.0,-100.00,SSE,158,4.0,7.0,47,0.00,,,-99.99,,2013-02-05 21:31:00,
2013-02-05 14:41:00,44.0,24.0,-100.00,SE,133,4.0,8.0,45,0.00,,,-99.99,,2013-02-05 21:41:00,
2013-02-05 14:52:00,44.0,24.0,-100.00,SE,130,3.0,7.0,44,0.00,,,-99.99,,2013-02-05 21:52:00,
2013-02-05 15:01:00,44.0,24.0,-100.00,SE,130,3.0,7.0,44,0.00,,,-99.99,,2013-02-05 22:01:00,
2013-02-05 15:11:00,44.0,24.0,-100.00,SE,130,3.0,7.0,44,0.00,,,-99.99,,2013-02-05 22:11:00,
2013-02-05 15:21:00,44.0,21.0,-100.00,SE,140,2.0,4.0,39,0.00,,,-99.99,,2013-02-05 22:21:00,
2013-02-05 15:31:00,44.0,21.0,-100.00,SE,140,2.0,4.0,39,0.00,,,-99.99,,2013-02-05 22:31:00,
2013-02-05 15:42:00,44.0,24.0,-100.00,SSE,162,3.0,5.0,45,0.00,,,-99.99,,2013-02-05 22:42:00,
2013-02-05 15:52:00,44.0,26.0,-100.00,ESE,113,4.0,7.0,49,0.00,,,-99.99,,2013-02-05 22:52:00,
2013-02-05 16:01:00,44.0,26.0,-100.00,ESE,113,4.0,7.0,49,0.00,,,-99.99,,2013-02-05 23:01:00,
2013-02-05 16:11:00,43.0,24.0,-100.00,SSW,209,1.0,2.0,47,0.00,,,-99.99,,2013-02-05 23:11:00,
2013-02-05 16:21:00,42.0,24.0,-100.00,WSW,251,2.0,4.0,48,0.00,,,-99.99,,2013-02-05 23:21:00,
2013-02-05 16:31:00,42.0,24.0,-100.00,WSW,251,2.0,4.0,48,0.00,,,-99.99,,2013-02-05 23:31:00,
2013-02-05 16:41:00,43.0,24.0,-100.00,ESE,119,2.0,3.0,47,0.00,,,-99.99,,2013-02-05 23:41:00,
2013-02-05 16:52:00,41.0,24.0,-100.00,SSE,160,2.0,3.0,50,0.00,,,-99.99,,2013-02-05 23:52:00,
2013-02-05 17:01:00,41.0,24.0,-100.00,SSE,160,2.0,3.0,50,0.00,,,-99.99,,2013-02-06 00:01:00,
2013-02-05 17:11:00,42.0,22.0,-100.00,ESE,109,4.0,6.0,44,0.00,,,-99.99,,2013-02-06 00:11:00,
2013-02-05 17:21:00,41.0,23.0,-100.00,ESE,113,3.0,4.0,48,0.00,,,-99.99,,2013-02-06 00:21:00,
2013-02-05 17:31:00,41.0,23.0,-100.00,ESE,113,3.0,4.0,48,0.00,,,-99.99,,2013-02-06 00:31:00,
2013-02-05 17:42:00,40.0,23.0,-100.00,SE,124,4.0,5.0,51,0.00,,,-99.99,,2013-02-06 00:42:00,
2013-02-05 17:52:00,40.0,23.0,-100.00,SE,124,4.0,5.0,51,0.00,,,-99.99,,2013-02-06 00:52:00,
2013-02-05 18:01:00,40.0,23.0,-100.00,SE,124,4.0,5.0,51,0.00,,,-99.99,,2013-02-06 01:01:00,
2013-02-05 18:11:00,38.0,24.0,-100.00,SE,127,3.0,4.0,56,0.00,,,-99.99,,2013-02-06 01:11:00,
2013-02-05 18:21:00,37.0,24.0,-100.00,ESE,117,2.0,3.0,58,0.00,,,-99.99,,2013-02-06 01:21:00,
2013-02-05 18:32:00,37.0,24.0,-100.00,ESE,117,2.0,3.0,58,0.00,,,-99.99,,2013-02-06 01:32:00,
2013-02-05 18:41:00,37.0,24.0,-100.00,ESE,117,2.0,3.0,58,0.00,,,-99.99,,2013-02-06 01:41:00,
2013-02-05 18:52:00,36.0,22.0,-100.00,SSE,148,3.0,6.0,58,0.00,,,-99.99,,2013-02-06 01:52:00,
2013-02-05 19:01:00,36.0,22.0,-100.00,SSE,148,3.0,6.0,58,0.00,,,-99.99,,2013-02-06 02:01:00,
2013-02-05 19:11:00,35.0,23.0,-100.00,ESE,117,2.0,3.0,62,0.00,,,-99.99,,2013-02-06 02:11:00,
2013-02-05 19:21:00,33.0,24.0,-100.00,East,79,0.0,1.0,68,0.00,,,-99.99,,2013-02-06 02:21:00,
2013-02-05 19:31:00,33.0,24.0,-100.00,East,79,0.0,1.0,68,0.00,,,-99.99,,2013-02-06 02:31:00,
2013-02-05 19:42:00,33.0,24.0,-100.00,ESE,109,1.0,3.0,69,0.00,,,-99.99,,2013-02-06 02:42:00,
2013-02-05 19:52:00,33.0,24.0,-100.00,ESE,109,1.0,3.0,69,0.00,,,-99.99,,2013-02-06 02:52:00,
2013-02-05 20:02:00,33.0,24.0,-100.00,ESE,109,1.0,3.0,69,0.00,,,-99.99,,2013-02-06 03:02:00,
2013-02-05 20:11:00,37.0,23.0,-100.00,West,271,1.0,2.0,55,0.00,,,-99.99,,2013-02-06 03:11:00,
2013-02-05 20:21:00,36.0,24.0,-100.00,NNE,28,0.0,1.0,63,0.00,,,-99.99,,2013-02-06 03:21:00,
2013-02-05 20:32:00,36.0,24.0,-100.00,NNE,28,0.0,1.0,63,0.00,,,-99.99,,2013-02-06 03:32:00,
2013-02-05 20:42:00,34.0,25.0,-100.00,ESE,102,1.0,1.0,68,0.00,,,-99.99,,2013-02-06 03:42:00,
2013-02-05 20:52:00,34.0,25.0,-100.00,ESE,102,1.0,1.0,68,0.00,,,-99.99,,2013-02-06 03:52:00,
2013-02-05 21:01:00,34.0,25.0,-100.00,ESE,102,1.0,1.0,68,0.00,,,-99.99,,2013-02-06 04:01:00,
2013-02-05 21:11:00,34.0,24.0,-100.00,NW,312,3.0,3.0,66,0.00,,,-99.99,,2013-02-06 04:11:00,
2013-02-05 21:21:00,34.0,25.0,-100.00,ENE,64,1.0,2.0,71,0.00,,,-99.99,,2013-02-06 04:21:00,
2013-02-05 21:31:00,34.0,25.0,-100.00,ENE,64,1.0,2.0,71,0.00,,,-99.99,,2013-02-06 04:31:00,
2013-02-05 21:41:00,33.0,25.0,-100.00,SSE,154,2.0,3.0,72,0.00,,,-99.99,,2013-02-06 04:41:00,
2013-02-05 21:52:00,33.0,25.0,-100.00,SSE,154,2.0,3.0,72,0.00,,,-99.99,,2013-02-06 04:52:00,
2013-02-05 22:01:00,33.0,25.0,-100.00,SSE,154,2.0,3.0,72,0.00,,,-99.99,,2013-02-06 05:01:00,
2013-02-05 22:12:00,34.0,25.0,-100.00,SSE,148,1.0,2.0,69,0.00,,,-99.99,,2013-02-06 05:12:00,
2013-02-05 22:22:00,34.0,25.0,-100.00,ESE,119,3.0,4.0,71,0.00,,,-99.99,,2013-02-06 05:22:00,
2013-02-05 22:31:00,34.0,25.0,-100.00,ESE,119,3.0,4.0,71,0.00,,,-99.99,,2013-02-06 05:31:00,
2013-02-05 22:42:00,34.0,25.0,-100.00,ESE,110,3.0,4.0,69,0.00,,,-99.99,,2013-02-06 05:42:00,
2013-02-05 22:53:00,33.0,25.0,-100.00,ESE,120,4.0,6.0,72,0.00,,,-99.99,,2013-02-06 05:53:00,
2013-02-05 23:01:00,33.0,25.0,-100.00,ESE,120,4.0,6.0,72,0.00,,,-99.99,,2013-02-06 06:01:00,
2013-02-05 23:11:00,33.0,25.0,-100.00,ESE,120,4.0,6.0,72,0.00,,,-99.99,,2013-02-06 06:11:00,
2013-02-05 23:21:00,33.0,26.0,-100.00,East,93,2.0,4.0,75,0.00,,,-99.99,,2013-02-06 06:21:00,
2013-02-05 23:31:00,33.0,26.0,-100.00,East,93,2.0,4.0,75,0.00,,,-99.99,,2013-02-06 06:31:00,
2013-02-05 23:42:00,32.0,25.0,-100.00,East,96,1.0,3.0,76,0.00,,,-99.99,,2013-02-06 06:42:00,
2013-02-05 23:52:00,31.0,24.0,-100.00,SE,124,1.0,2.0,77,0.00,,,-99.99,,2013-02-06 06:52:00,